Theta_e
333 328 320 314 314 311 313 308 295 297 295 292 294 294 293 295 299 300 300 307 311 319 323 325 321 327 322 321 322 324 325 322 323 315 315 331 343 344 345 348 351 352 350 353 356 355 355 353 353 355 354 355 354 354 354 353 353 354 354 354 354 354 354 353 353 352 352 351 351 351 351 351 351 351 351 350 350 349 349 349 349 349 349 348 347 347 346 346 345 344 344 344 344 345 344 345 346
321 317 313 313 313 309 305 304 298 296 294 292 294 293 297 298 300 300 301 309 314 321 327 328 329 329 329 328 329 328 325 330 329 328 332 340 344 344 348 350 350 349 351 353 355 356 355 354 352 354 354 354 354 353 353 354 353 353 354 353 354 354 353 353 352 352 352 352 353 352 352 352 352 351 350 350 350 349 348 348 348 347 348 348 347 347 346 345 344 344 343 344 343 344 344 343 345
315 314 310 313 309 309 307 303 294 293 291 289 292 298 299 304 306 308 307 305 322 326 325 324 326 325 325 327 323 323 322 333 333 336 335 341 336 339 348 351 352 351 351 353 354 354 352 351 353 353 354 354 353 353 353 353 353 353 353 353 354 354 353 353 353 353 353 353 353 353 352 352 351 351 351 350 349 349 348 347 347 347 347 347 346 346 345 343 343 343 343 342 344 344 344 344 344
317 316 311 311 305 307 302 299 296 293 290 290 298 303 304 309 311 314 315 312 324 323 318 322 322 323 323 321 325 330 328 329 335 335 333 336 338 344 346 351 352 351 351 353 354 354 357 354 352 353 353 354 354 353 353 353 353 353 353 353 354 354 354 353 353 353 353 353 353 353 352 351 351 351 350 350 349 349 348 347 346 347 346 346 346 345 344 343 343 342 343 342 344 344 345 344 344
311 313 312 309 306 302 301 297 295 293 290 294 296 306 308 310 313 314 314 318 320 316 318 320 322 326 327 327 326 323 325 334 336 339 338 342 347 347 348 350 350 349 348 351 352 354 356 354 352 352 352 354 354 353 353 353 353 353 353 353 354 354 354 354 353 353 353 353 353 352 352 351 352 351 350 350 349 349 348 348 347 347 346 346 345 344 343 343 343 343 343 344 345 344 344 344 344
309 310 311 310 304 306 301 295 295 293 295 299 302 305 303 311 314 314 314 313 315 318 319 320 321 322 324 327 330 327 333 328 337 339 341 342 347 347 348 349 348 347 348 349 351 353 355 353 351 352 352 353 353 353 353 353 352 352 353 353 353 354 354 354 354 353 353 353 353 352 351 351 351 351 350 350 350 349 348 348 347 347 346 345 344 343 343 342 343 343 344 345 346 344 344 344 344
308 309 309 306 304 305 297 295 295 295 297 297 299 302 302 305 313 312 314 314 316 320 325 321 326 326 322 327 331 335 339 338 338 340 345 345 347 347 347 347 347 346 347 348 350 352 355 353 352 350 350 353 354 353 353 352 352 352 353 353 353 354 354 354 354 354 353 353 352 351 350 350 350 351 350 350 349 349 348 347 348 348 347 346 345 343 342 342 343 343 345 345 344 344 344 344 344
310 306 305 301 297 299 295 295 295 296 296 297 300 300 303 304 305 309 312 312 314 314 321 322 320 321 319 328 321 335 341 343 344 347 347 347 346 346 346 346 345 346 347 349 351 353 355 352 352 351 352 352 354 354 354 353 352 352 352 352 353 354 354 353 353 353 353 353 352 351 350 349 350 350 350 350 350 349 348 348 348 346 347 346 345 344 343 342 343 344 344 344 344 344 344 344 343
308 308 302 300 295 296 294 294 294 296 298 298 301 303 307 307 306 305 305 311 312 315 321 320 321 317 319 325 325 334 339 345 347 348 347 347 345 345 346 345 344 344 347 348 351 353 354 353 352 352 352 352 353 353 353 353 352 353 352 352 353 353 353 354 353 353 352 352 352 352 351 351 350 350 350 350 349 349 348 349 348 347 346 346 346 345 344 344 345 345 345 345 344 344 343 343 342
305 304 300 299 297 292 292 293 293 296 297 300 300 302 302 304 304 304 304 307 311 319 320 321 325 319 324 322 326 333 337 344 346 346 347 346 345 345 346 347 346 345 347 347 349 350 352 353 351 352 350 351 353 352 353 353 353 353 353 352 352 353 353 353 353 352 352 351 351 351 351 351 350 350 350 350 349 348 348 348 348 348 347 347 346 345 345 346 345 344 344 343 343 343 343 342 341
302 302 302 296 294 292 291 292 293 296 297 300 300 302 303 303 302 303 305 307 314 317 319 324 323 322 323 322 326 337 342 344 343 342 346 346 346 345 345 347 347 347 346 347 348 350 352 353 353 352 351 351 350 350 352 352 352 352 352 352 352 353 353 353 353 352 352 351 351 351 351 351 351 350 350 349 349 349 348 348 348 348 348 348 347 346 346 345 345 344 343 344 344 343 343 342 341
300 300 298 295 293 292 292 292 294 297 299 299 300 303 304 302 302 301 302 302 311 316 319 321 318 326 321 323 327 337 341 342 343 344 345 346 345 346 346 346 347 347 347 347 348 350 351 353 354 353 352 350 349 347 348 350 351 351 352 352 352 353 352 352 352 352 352 352 351 351 351 351 350 350 350 349 349 348 348 348 348 348 348 348 348 347 346 346 346 346 346 345 344 344 343 342 341
301 297 297 295 293 294 293 293 295 297 298 299 301 302 303 302 301 302 303 304 309 314 316 322 327 326 318 322 330 338 337 341 344 345 345 346 346 346 346 346 346 346 347 348 348 348 351 352 353 352 353 350 348 346 347 348 349 350 351 351 352 352 352 352 352 352 352 352 351 351 351 351 350 350 349 349 348 347 347 348 348 348 348 348 348 348 347 347 347 346 346 345 344 343 343 342 341
302 300 299 293 293 294 294 295 295 295 296 300 300 300 300 300 302 303 303 301 306 310 320 326 326 326 322 326 328 331 335 342 344 346 346 346 346 345 345 345 346 346 347 347 346 348 350 351 353 353 353 352 351 349 345 345 346 351 351 351 352 351 351 351 351 351 351 351 351 351 351 350 350 350 349 348 348 347 347 348 348 348 348 348 348 347 347 347 346 346 345 345 344 343 342 341 341
301 298 300 295 293 293 294 293 295 295 296 300 301 298 300 304 304 302 302 301 305 319 324 329 327 320 314 321 322 330 336 341 343 345 345 345 345 344 344 344 345 345 346 346 346 347 348 350 351 352 354 353 353 353 350 347 343 351 350 349 351 351 351 351 351 351 351 351 351 350 350 349 348 348 348 345 346 346 347 347 348 348 348 348 348 347 347 346 346 346 345 345 343 343 342 341 341
302 299 298 295 292 292 293 294 295 294 297 298 300 298 301 306 308 305 303 306 312 321 326 321 321 314 323 323 326 334 339 342 343 345 344 343 344 344 343 343 343 344 345 345 345 346 347 349 350 350 351 353 352 349 349 350 347 347 349 350 350 350 350 351 351 351 351 350 350 350 349 348 348 346 346 344 344 343 344 346 346 348 348 348 348 347 347 347 346 345 343 344 343 343 342 341 340
300 301 295 293 291 291 293 294 294 294 299 299 299 300 298 302 309 314 316 317 317 318 314 315 317 315 324 326 333 339 340 342 343 342 342 341 341 340 341 342 342 342 343 343 345 345 345 347 347 349 350 351 353 353 353 352 351 348 347 346 348 348 349 350 349 350 350 348 349 349 345 351 352 352 348 346 345 346 343 344 348 347 348 348 347 347 347 347 345 344 344 342 343 342 341 340 340
301 297 294 292 293 292 296 295 297 298 296 300 300 298 299 303 311 313 317 315 315 313 314 315 322 324 328 333 339 340 339 339 340 339 338 337 338 337 337 338 339 337 340 340 342 343 344 346 346 346 348 349 350 352 352 352 352 349 353 350 350 349 349 348 350 352 348 353 348 350 351 350 351 350 344 345 350 348 345 346 348 347 347 347 347 347 347 347 345 345 344 342 340 341 341 340 341
298 294 294 292 293 296 299 299 298 297 298 300 300 299 300 306 311 311 311 311 313 312 312 317 322 327 332 334 337 337 338 337 338 337 335 334 334 335 335 337 339 338 339 340 340 341 343 344 345 345 346 349 349 348 349 351 352 353 352 348 352 349 350 349 352 350 349 350 350 349 350 351 349 347 349 348 346 344 345 345 346 345 346 345 346 346 347 346 345 344 344 343 340 338 340 339 337
297 297 293 294 297 298 297 298 299 299 299 299 299 299 302 307 306 309 311 310 311 312 312 316 320 323 327 330 334 335 336 336 336 334 333 333 334 335 334 336 336 338 337 339 339 341 342 343 344 345 346 347 347 347 349 350 351 352 352 352 353 353 351 351 351 350 349 349 348 350 350 350 350 350 343 343 341 341 344 345 342 341 342 342 345 344 345 346 345 344 343 342 340 340 340 337 334
296 296 294 296 296 295 299 298 299 299 298 298 298 298 303 304 306 311 311 310 310 312 314 316 318 324 326 330 333 334 334 334 334 333 332 332 333 334 336 335 337 337 338 339 339 339 341 342 343 344 346 346 346 347 347 347 348 349 351 351 351 351 350 350 350 350 349 348 350 351 348 349 349 349 349 347 348 346 349 348 347 345 346 347 344 346 345 341 343 338 341 340 340 340 339 339 337
297 296 298 298 294 295 300 300 299 298 297 297 297 298 301 307 309 311 312 309 309 313 315 315 316 327 328 329 331 333 332 331 331 330 330 330 330 331 332 333 334 336 339 337 338 339 341 342 343 343 344 344 346 347 346 347 347 346 347 348 350 349 348 347 348 348 348 349 349 348 349 349 347 347 349 348 348 348 347 347 347 348 347 346 345 343 344 342 342 339 340 339 339 340 339 339 339
294 296 295 296 298 296 299 299 298 296 298 298 297 299 303 306 308 312 313 312 309 308 309 313 320 329 331 332 332 330 330 329 328 328 329 328 328 329 330 332 333 333 336 336 338 339 340 342 342 343 342 343 344 344 344 345 345 346 345 346 346 345 346 344 345 347 347 348 348 349 347 346 346 347 347 347 346 347 347 347 346 346 346 345 346 345 343 342 341 339 337 338 337 337 338 339 337
296 295 295 297 296 296 299 299 297 297 296 297 299 299 298 304 304 309 310 305 307 310 312 317 324 329 332 330 330 329 328 328 327 328 328 328 328 328 329 329 333 335 336 335 337 338 340 341 342 342 342 344 344 343 343 343 344 344 343 346 343 344 343 342 345 345 345 346 347 348 347 345 345 345 347 345 345 346 346 346 345 345 345 345 345 345 342 340 339 338 338 336 335 336 336 337 336
294 294 296 296 295 297 299 298 296 295 296 298 296 296 298 302 304 307 310 308 310 312 316 322 326 328 329 329 328 328 327 326 327 327 328 328 330 329 327 330 332 334 334 333 335 337 340 340 342 341 342 342 343 343 343 343 344 344 345 342 342 341 343 343 341 342 343 344 345 346 346 344 345 343 344 343 345 343 342 339 338 336 334 339 342 342 341 339 338 337 336 336 335 336 335 335 334
295 297 296 297 297 299 298 297 297 296 297 296 297 297 299 299 304 307 307 308 310 314 319 323 325 326 327 327 327 326 326 326 326 325 325 324 323 324 322 326 329 334 335 334 334 337 338 340 341 341 341 341 342 342 342 342 343 343 342 342 340 343 340 338 339 340 341 341 342 344 345 345 344 343 342 343 341 337 337 337 336 334 334 336 337 339 340 340 337 337 336 336 335 336 334 334 333
296 297 296 298 299 296 297 295 296 295 297 297 298 299 301 301 301 303 305 309 311 314 317 322 325 324 326 326 326 326 326 326 324 325 321 321 322 325 323 324 330 333 330 332 335 335 337 339 340 340 340 342 342 340 341 341 342 340 341 342 341 341 341 339 338 339 340 340 340 339 340 340 335 335 338 336 334 335 335 335 336 335 334 334 336 337 340 339 339 337 338 338 335 333 334 332 331
296 297 296 297 295 294 295 295 296 297 297 295 299 297 298 299 299 300 302 309 311 312 315 319 323 323 323 324 324 325 325 323 322 322 321 320 323 323 321 325 329 327 328 331 333 333 334 339 338 339 339 341 341 338 339 339 340 340 341 341 340 340 340 339 340 339 340 338 338 339 337 336 336 336 334 333 333 334 333 334 335 333 333 335 335 337 337 339 339 338 338 339 339 337 335 334 333
297 295 295 297 296 297 296 296 297 296 297 296 299 300 298 299 299 298 304 309 310 312 313 317 319 319 320 321 321 321 323 320 318 321 323 324 325 322 322 326 328 327 328 330 329 330 334 338 336 337 339 339 339 338 338 338 339 339 339 339 340 341 340 340 339 339 337 337 338 338 336 335 334 335 337 335 334 335 334 335 335 334 335 335 335 335 337 339 337 338 338 338 338 337 336 336 334
295 295 293 295 295 295 297 296 296 297 296 295 298 292 295 298 299 297 308 309 310 310 311 315 316 316 317 318 319 319 320 317 316 320 322 323 322 321 323 323 326 328 326 325 327 330 332 335 335 334 337 337 337 337 337 337 337 338 339 339 340 339 340 338 338 338 337 336 335 334 337 335 334 336 336 335 334 335 336 335 335 336 336 334 334 335 334 336 337 337 338 337 335 335 333 334 334
295 294 294 292 292 292 297 295 296 298 296 296 300 293 295 298 299 300 308 310 310 309 310 312 313 314 315 316 317 318 318 318 316 319 320 320 319 319 323 322 324 325 324 323 327 330 330 331 332 333 335 335 335 335 335 336 335 337 336 337 338 337 337 336 337 338 338 337 336 336 336 336 336 335 335 337 337 337 336 335 336 336 336 335 335 334 333 333 335 335 336 336 336 335 334 334 334
293 292 291 291 292 293 296 296 296 297 298 297 299 294 295 297 297 305 308 308 309 309 309 310 312 313 314 314 315 316 316 315 315 316 318 318 318 318 321 322 323 323 325 325 327 327 328 329 333 333 335 334 335 334 334 334 334 334 336 335 335 335 335 335 335 337 336 337 337 336 337 337 337 336 336 337 336 335 336 335 336 337 337 337 336 335 334 333 332 334 336 335 334 333 333 333 334
293 294 291 292 293 293 294 297 297 297 296 298 297 294 296 296 297 302 307 308 308 309 309 310 310 312 313 314 314 314 314 313 314 314 316 316 317 318 320 322 322 324 325 325 326 326 326 328 330 333 334 334 331 328 326 326 327 329 331 333 332 332 333 333 334 336 336 337 337 335 336 337 337 336 337 336 337 336 335 335 336 336 337 336 336 337 334 334 331 330 333 334 335 333 333 333 333
293 293 294 290 292 294 293 298 298 300 297 297 296 295 295 296 298 300 305 307 307 308 309 309 310 311 313 313 312 312 312 313 313 314 316 317 316 317 320 321 322 322 322 324 326 326 326 326 328 330 331 329 327 325 326 326 328 329 330 330 330 330 331 332 333 335 335 335 334 335 337 337 337 336 336 336 336 335 335 335 335 335 336 336 336 335 334 334 332 330 330 332 333 333 332 332 332
290 293 292 292 292 291 293 293 296 299 297 296 295 295 296 296 298 299 306 305 307 308 309 309 310 311 311 311 311 311 311 312 314 315 316 317 317 317 318 320 321 321 321 322 322 323 323 323 325 327 326 325 325 325 326 326 327 328 328 329 330 331 332 331 332 333 331 332 331 332 333 334 335 336 336 335 335 335 334 336 335 334 334 335 334 332 332 332 333 330 329 329 332 334 334 333 334
292 294 293 293 293 293 294 296 296 297 296 295 295 296 296 297 298 298 304 303 307 307 308 308 309 310 311 311 311 311 311 312 314 316 317 318 317 317 318 319 320 320 321 321 321 322 322 323 325 325 324 324 325 325 325 325 327 327 326 327 327 328 330 329 330 329 331 329 330 331 331 332 331 333 335 337 336 333 333 334 334 334 334 333 333 331 331 332 331 331 330 329 330 331 334 333 333
294 294 294 293 293 294 295 294 297 298 295 295 296 297 295 297 298 298 303 302 305 306 307 307 308 308 309 310 311 311 311 312 313 315 316 317 316 317 318 319 319 319 320 320 321 321 322 322 323 322 322 325 324 322 323 324 323 324 325 327 325 326 327 328 328 329 329 328 328 327 328 329 330 331 331 333 335 331 332 333 333 334 334 333 332 333 333 333 333 332 331 331 329 329 330 333 333
295 295 294 292 291 294 295 295 298 299 296 294 294 295 297 298 299 298 299 301 303 305 306 307 307 308 309 310 311 312 312 312 312 314 316 317 315 317 318 318 318 317 318 319 320 321 322 323 324 322 321 323 325 325 324 324 325 325 324 324 325 325 325 325 325 327 327 327 328 328 329 328 329 330 331 334 334 333 331 331 332 332 332 332 332 331 331 331 330 330 331 329 331 331 330 332 331
294 294 293 292 293 293 296 295 298 298 297 296 294 296 297 299 300 301 299 302 306 307 308 309 308 308 308 309 311 312 311 311 312 314 316 316 317 317 317 318 318 319 320 319 321 321 321 321 322 321 322 323 323 325 324 322 323 323 325 324 324 320 322 326 326 326 326 323 327 326 327 328 327 327 329 330 330 332 332 330 329 329 331 331 329 329 330 330 330 329 330 329 327 329 330 331 330
295 293 292 292 293 292 291 298 297 298 297 296 296 295 298 299 299 299 301 299 301 303 302 306 309 308 309 310 311 312 312 312 312 313 314 316 316 317 317 317 318 318 318 318 319 320 321 321 320 321 322 323 323 325 324 325 323 323 325 325 323 324 322 324 325 325 325 324 322 325 325 326 326 326 326 325 327 328 329 328 328 327 327 328 327 326 326 326 329 330 330 329 329 325 327 327 332
294 295 294 293 293 295 294 295 297 297 296 296 295 295 296 298 297 297 300 300 300 301 299 301 305 307 309 310 310 312 313 313 313 313 314 315 316 316 316 317 318 317 317 318 318 319 320 321 320 321 322 323 325 325 325 325 324 324 323 323 323 322 323 322 322 321 324 322 322 322 322 325 325 325 326 327 325 326 327 327 325 325 325 326 325 324 323 324 323 325 328 329 329 327 325 326 325
294 296 297 298 298 296 294 295 296 294 293 295 293 288 289 295 295 297 298 299 300 301 300 301 302 304 305 306 308 311 313 315 314 313 313 315 316 317 317 317 317 317 317 319 319 320 321 321 321 322 322 323 325 326 325 324 324 323 322 319 317 318 317 318 318 319 320 320 319 323 322 323 323 325 325 325 325 324 325 325 325 323 323 323 323 322 322 322 322 322 324 326 326 328 326 325 324
291 295 298 298 297 298 297 294 294 289 287 293 294 288 285 296 295 296 298 298 299 302 301 301 301 300 302 304 308 309 311 312 314 315 314 314 316 317 317 316 317 317 318 319 318 320 321 322 321 321 322 323 325 324 324 324 324 324 324 322 319 319 318 320 323 324 323 321 322 322 321 324 322 323 324 325 325 324 324 324 324 323 322 321 321 320 319 319 318 319 321 322 322 324 326 322 322
292 297 295 296 296 296 297 296 294 292 294 296 293 293 288 288 293 297 295 297 299 300 302 301 300 301 301 303 306 309 310 312 313 314 314 314 315 316 316 317 318 317 319 318 318 319 320 321 321 320 322 323 324 324 323 325 324 324 323 322 320 320 320 319 321 322 324 323 321 321 322 322 323 322 322 323 323 322 322 322 323 322 319 318 316 316 316 317 317 318 320 320 320 321 322 321 320
295 294 295 296 297 299 296 294 293 292 291 288 292 293 288 288 293 295 296 295 297 298 299 299 299 301 302 303 303 304 307 310 312 313 314 313 314 316 317 318 319 319 317 317 317 319 320 321 321 321 321 323 323 324 323 323 325 324 323 322 319 320 320 322 321 322 321 323 321 321 322 321 323 324 323 323 323 321 321 321 322 320 319 317 316 316 317 316 317 317 317 317 317 318 319 320 320
293 294 294 293 294 294 295 293 292 291 289 284 290 292 286 287 293 294 296 294 294 296 298 298 299 299 300 301 303 304 303 304 306 309 313 315 315 317 318 319 319 318 318 318 318 318 318 320 320 320 320 322 323 323 323 322 323 323 322 321 321 320 319 320 321 321 321 321 320 321 321 321 321 322 323 323 322 321 321 322 320 319 319 318 316 316 317 317 317 317 317 317 317 316 317 317 317
295 295 294 292 292 292 292 291 291 290 283 286 291 288 289 283 290 292 292 293 294 296 298 300 301 301 302 303 303 303 302 302 301 302 307 313 315 316 317 317 318 318 318 318 317 317 318 318 319 319 320 322 323 323 323 321 321 322 322 321 321 321 320 320 319 319 320 320 320 320 319 319 321 321 322 322 323 321 323 322 321 320 320 319 316 316 316 315 316 317 317 317 317 316 315 315 316
295 295 293 292 290 292 291 289 291 282 281 288 287 287 290 283 288 292 294 295 295 295 296 298 299 299 299 300 300 302 303 303 302 302 304 311 314 315 316 316 317 316 316 317 318 317 317 318 319 319 320 321 322 322 322 322 320 321 322 322 321 322 321 320 319 318 319 319 320 319 319 319 319 320 321 320 321 323 323 321 322 320 318 318 317 317 316 316 316 316 316 316 316 316 316 315 315
294 293 292 287 285 284 281 285 280 282 281 287 287 287 286 286 292 294 293 295 296 297 297 297 298 297 299 299 300 301 303 304 305 304 306 310 312 313 314 316 317 316 315 316 317 317 317 317 318 318 319 321 321 322 322 321 320 320 320 321 322 322 322 321 321 320 320 319 318 319 319 317 318 318 318 319 321 322 322 321 320 318 318 318 318 316 316 316 315 314 314 314 314 314 314 315 313
292 292 290 286 281 278 273 280 280 282 287 287 287 289 285 290 292 294 294 296 296 297 298 298 297 297 298 298 299 300 303 304 305 306 308 310 312 314 315 316 315 316 316 316 317 317 317 317 317 318 319 320 321 321 321 321 320 321 321 320 321 321 321 322 321 320 320 320 319 319 319 318 318 319 319 319 321 322 321 321 321 320 318 318 318 318 317 316 315 312 313 312 313 314 314 314 313
292 291 292 289 287 281 274 280 277 280 283 285 288 285 284 285 289 294 296 297 297 297 297 297 298 297 298 298 299 300 301 305 306 307 308 311 313 314 315 315 315 315 316 316 317 316 316 316 316 317 318 319 320 320 321 321 320 320 320 320 321 321 321 320 320 321 321 320 320 320 321 321 319 321 320 323 322 323 322 322 321 319 318 318 318 318 317 317 315 313 313 314 314 313 313 312 311
290 291 292 289 287 291 283 284 285 284 283 282 284 285 288 289 293 295 297 296 296 296 296 297 296 297 297 298 299 299 301 303 306 308 309 311 313 314 315 315 315 315 316 316 316 317 316 316 316 317 317 319 319 320 320 321 321 320 320 319 319 320 320 321 320 319 320 321 321 320 320 321 321 322 323 323 323 322 321 321 320 319 318 317 318 317 316 314 314 313 312 313 312 313 312 312 311
291 289 288 290 293 292 283 281 282 280 282 281 285 286 289 293 294 296 296 294 294 295 295 295 296 296 299 298 298 299 300 301 304 307 308 311 312 314 315 315 316 316 315 316 316 317 316 316 315 315 316 317 319 320 320 320 321 320 319 319 319 319 320 320 320 320 319 320 321 321 320 320 322 321 321 323 322 322 321 321 319 318 318 318 317 316 315 315 315 313 312 312 312 313 312 311 311
290 287 290 292 294 296 288 281 280 280 279 280 283 283 285 286 284 294 293 293 293 293 294 294 296 297 297 297 298 299 299 301 303 304 308 310 312 313 314 316 316 316 316 316 316 317 317 317 316 315 316 316 317 318 319 320 319 319 319 319 319 319 319 320 321 321 320 318 318 319 320 319 319 319 321 321 322 320 321 320 319 317 317 317 317 316 315 314 314 312 312 311 312 313 312 312 312
293 291 294 290 285 284 288 284 276 276 275 279 282 282 284 287 288 291 291 291 292 292 293 294 294 296 296 297 298 300 301 302 302 303 304 306 309 311 313 314 315 316 316 317 317 317 317 318 317 317 316 317 318 319 319 319 320 319 319 319 319 319 319 320 321 321 321 319 318 318 318 319 320 319 319 320 320 319 319 319 318 316 316 316 316 316 315 314 313 312 312 310 312 312 310 310 311
293 292 292 290 292 289 285 285 287 285 277 274 278 282 282 289 291 293 292 293 293 293 293 293 294 295 296 297 298 299 300 301 301 302 303 304 306 309 311 313 313 315 316 317 317 317 317 318 318 317 318 318 318 318 319 319 319 319 319 319 319 318 318 319 320 320 320 319 319 319 319 319 319 318 319 320 319 318 318 317 316 315 315 315 314 315 315 314 313 312 311 310 311 311 309 309 309
290 291 288 289 289 289 288 288 286 284 279 278 278 278 284 291 292 294 294 294 294 294 293 294 295 295 296 296 298 299 300 300 301 302 302 304 305 306 308 311 313 314 315 316 317 318 318 318 317 318 318 318 319 319 320 319 320 319 319 319 319 319 319 319 319 320 320 320 321 320 319 319 319 318 319 319 318 318 317 316 315 313 313 314 314 314 314 313 312 311 311 311 310 309 307 308 308
291 290 289 289 288 286 282 281 286 285 283 277 276 278 287 292 292 295 295 296 295 294 294 294 294 295 296 297 299 299 300 300 301 302 303 303 304 305 305 306 307 308 311 314 316 317 318 318 318 318 318 318 319 320 320 320 321 321 320 320 320 320 320 319 319 319 319 319 320 319 320 318 318 318 318 318 317 319 317 316 314 312 312 312 313 313 313 312 311 311 311 311 310 309 307 307 308
Wind_Speed
2 1 1 2 1 2 2 2 4 2 1 3 3 1 1 2 4 5 3 1 4 1 1 2 9 13 6 5 7 5 4 12 4 8 2 4 4 9 8 13 13 13 14 12 11 11 12 13 14 15 15 14 13 14 15 16 15 15 16 16 16 17 16 16 16 16 16 17 16 15 14 15 14 13 12 11 11 11 11 12 12 12 13 12 11 12 11 11 11 11 12 11 11 10 10 11 11
1 1 1 2 1 1 3 2 2 0 1 1 3 1 0 1 3 6 4 1 2 3 2 6 7 9 8 13 10 9 6 6 4 3 2 5 10 7 9 12 14 15 13 11 11 10 10 13 15 15 15 14 14 14 15 16 16 15 16 17 17 16 17 17 17 17 16 15 15 14 14 13 13 12 12 12 12 12 10 9 10 11 12 13 12 11 11 11 11 11 12 11 11 11 11 11 11
1 1 1 1 1 1 4 1 3 1 2 4 1 3 1 5 5 6 5 4 4 7 2 7 9 7 5 7 6 3 4 1 4 4 5 9 11 6 10 10 13 15 14 10 11 10 10 12 14 15 15 14 14 14 14 15 16 16 16 16 16 16 16 16 16 16 15 14 14 14 13 13 13 13 13 13 13 12 11 10 8 10 11 12 12 11 11 11 12 11 12 12 11 10 10 10 10
0 0 1 2 2 2 2 1 1 3 3 0 1 1 2 4 5 7 5 4 4 1 1 3 4 3 3 7 4 6 5 5 3 8 7 10 6 10 11 11 13 12 12 10 10 10 9 13 14 15 16 15 13 13 14 14 14 15 15 15 15 15 15 15 14 14 14 13 13 13 12 13 13 13 13 13 12 13 12 11 9 9 11 12 12 12 11 11 11 12 11 11 11 10 10 10 10
1 1 1 1 2 2 2 1 1 1 5 4 1 1 2 3 4 4 4 1 2 3 2 1 3 4 3 6 1 1 3 5 7 4 7 7 9 10 12 11 11 11 11 11 10 9 10 14 13 14 15 16 13 13 13 13 13 13 13 13 13 14 15 15 14 14 14 13 12 12 12 12 12 12 12 12 12 11 11 11 10 8 9 12 12 12 10 9 10 11 12 12 12 11 11 11 11
1 1 0 2 2 2 3 3 2 4 1 2 1 1 2 2 4 3 2 3 1 1 2 1 1 5 3 4 3 4 5 5 8 6 8 8 12 12 13 10 11 10 10 10 9 9 10 12 12 12 15 16 15 13 13 13 13 14 14 13 13 13 14 14 14 14 14 13 12 12 12 12 11 11 11 11 11 11 10 9 10 9 10 12 12 12 11 10 11 11 12 13 13 13 11 11 11
1 2 1 2 3 1 2 2 2 2 1 3 2 2 2 2 0 2 4 2 1 4 4 3 4 8 6 3 6 5 3 0 8 7 6 12 12 12 12 10 11 11 10 9 9 9 12 12 12 13 12 16 16 15 14 13 13 13 14 13 13 13 13 13 12 13 14 13 13 12 12 12 11 11 11 11 11 10 10 8 8 9 11 12 12 12 12 11 10 11 12 13 14 13 11 10 10
1 3 1 2 2 1 2 0 2 3 1 4 3 5 5 5 3 4 2 0 2 1 2 4 4 2 4 3 1 4 4 2 6 10 13 12 12 13 12 10 11 10 9 9 8 8 12 11 11 12 13 14 16 16 15 14 13 12 13 13 12 12 12 12 11 11 11 12 13 12 12 12 12 11 11 11 11 10 9 8 8 9 10 12 11 11 12 11 11 12 13 13 13 13 11 10 9
1 1 0 2 3 2 2 2 1 1 6 3 8 8 7 9 6 5 6 1 3 1 3 4 5 3 4 5 5 3 5 6 10 13 13 13 13 13 9 10 11 10 9 9 9 9 10 11 10 10 12 13 14 15 15 14 13 12 13 12 11 11 10 11 11 10 10 10 11 12 12 12 12 12 11 11 11 10 10 9 8 9 11 11 12 11 11 12 12 12 12 13 13 13 12 10 8
2 2 2 1 2 5 1 1 2 2 4 4 6 8 5 3 6 5 7 5 1 5 4 1 4 5 6 7 7 4 5 8 12 13 12 12 12 11 10 10 11 12 9 9 9 9 8 12 10 9 10 12 13 14 14 13 13 13 12 12 10 9 10 10 10 10 10 10 10 11 11 11 11 12 12 12 11 11 10 9 7 7 9 11 12 12 12 12 12 12 11 12 13 13 11 10 8
1 2 2 3 2 3 5 1 2 2 5 5 8 10 10 4 5 7 5 3 2 2 5 4 5 7 4 4 4 0 4 9 12 13 12 12 12 12 10 9 10 10 11 10 10 9 9 10 13 10 10 10 10 11 13 13 12 11 11 10 10 10 10 10 10 10 10 10 10 10 10 10 11 11 11 12 12 11 10 9 9 7 6 10 11 12 12 13 12 11 10 9 10 10 10 10 9
2 1 1 2 3 2 1 1 0 3 6 3 5 1 3 5 3 4 6 8 5 4 6 6 5 7 5 2 3 5 8 8 10 10 11 11 10 11 10 9 9 9 10 10 10 9 9 9 10 12 11 9 10 7 10 11 11 11 12 11 10 10 10 10 9 9 9 9 9 10 9 10 11 11 10 10 11 11 10 10 9 8 7 7 9 10 11 12 12 12 11 10 9 9 9 9 8
0 1 2 2 0 1 3 2 1 4 4 4 4 4 2 5 5 8 8 9 6 6 4 5 10 3 4 2 3 5 9 9 9 11 11 10 10 11 10 10 10 10 9 9 10 10 10 8 8 9 10 13 10 12 9 9 9 10 11 11 11 10 10 9 9 9 9 9 8 9 9 10 10 10 10 10 11 11 11 10 10 9 8 7 7 8 10 11 10 10 12 11 10 8 9 8 8
2 2 3 2 1 2 2 0 1 4 3 1 1 1 2 3 5 7 4 7 8 10 2 10 9 6 5 5 3 7 8 9 11 11 9 11 10 10 11 10 10 10 9 9 9 9 9 8 8 8 9 9 9 11 9 9 6 10 10 10 10 9 9 9 8 8 8 9 8 8 9 9 10 10 10 10 11 10 10 9 8 9 9 7 6 6 8 9 10 9 9 11 11 9 7 7 6
1 1 2 2 2 1 1 2 2 3 2 1 1 3 4 3 5 3 8 9 7 3 5 2 2 7 5 10 6 9 10 11 10 11 10 10 11 10 10 9 9 9 9 9 9 9 9 8 7 7 8 7 8 6 7 9 10 9 10 10 10 9 8 8 8 8 8 9 9 9 9 9 10 10 10 9 5 7 8 9 9 8 8 7 7 5 6 8 8 9 9 8 9 9 7 6 5
3 2 2 2 1 2 2 4 2 1 3 1 2 3 8 1 2 4 5 6 5 3 7 6 1 1 4 8 5 12 13 11 10 11 11 12 10 9 9 9 8 8 8 8 8 8 9 8 7 6 7 7 6 7 7 8 10 10 10 9 10 8 8 8 8 8 8 8 9 7 6 7 7 7 8 7 11 5 4 7 7 8 8 7 6 5 5 7 8 8 8 8 8 8 8 6 5
1 0 2 2 3 3 2 4 5 3 3 2 2 6 8 4 1 1 3 5 13 9 1 3 2 2 4 4 10 16 13 11 11 12 11 9 9 8 8 7 7 7 6 7 7 7 8 8 8 7 6 8 8 7 6 6 7 10 7 7 8 8 8 8 10 9 7 8 8 6 5 5 5 4 5 6 8 8 8 8 9 9 8 7 6 5 4 5 7 8 8 8 7 7 8 7 6
1 1 2 2 0 4 4 5 6 2 5 8 7 4 5 3 3 3 4 6 8 6 5 2 5 5 3 6 13 15 12 12 12 12 10 10 8 8 8 8 8 8 7 6 7 7 6 7 7 7 6 7 7 6 5 5 6 8 8 7 7 7 8 7 8 7 7 5 5 5 4 3 3 4 6 6 5 6 7 5 7 8 8 7 5 4 4 3 7 8 9 8 8 5 5 4 5
2 2 1 4 4 4 3 2 3 3 8 7 9 4 3 2 3 3 4 6 11 9 4 2 7 7 9 12 15 15 13 12 12 11 11 13 11 11 9 7 7 9 8 7 6 6 6 6 6 6 7 7 7 6 5 5 6 5 7 7 5 7 8 8 6 7 6 6 6 5 4 3 4 4 4 3 2 2 4 8 6 7 5 5 5 4 4 3 5 7 9 8 9 6 1 1 2
1 2 2 4 5 5 4 3 6 6 7 10 9 4 2 1 2 1 5 8 6 13 10 7 7 9 11 14 15 14 13 12 12 13 13 12 12 10 9 8 7 8 8 7 7 5 6 5 6 6 6 6 6 5 5 5 5 5 4 5 4 4 5 5 6 5 5 5 5 4 3 3 3 3 4 6 5 3 5 5 3 3 5 8 6 5 5 4 4 7 8 11 8 4 2 1 1
2 2 4 3 2 4 4 6 9 8 4 5 5 4 2 3 3 4 9 9 7 6 6 5 12 15 15 16 16 15 15 14 13 13 13 12 12 10 8 10 7 8 8 8 6 6 6 6 6 6 6 6 5 5 4 4 4 4 3 3 3 3 3 2 3 3 4 5 5 4 4 3 2 2 3 4 4 5 4 3 3 4 6 6 6 5 4 4 4 4 5 5 3 5 4 0 1
4 5 4 4 2 4 9 7 4 4 1 4 2 7 2 3 2 7 12 10 8 7 7 5 2 14 21 19 17 16 16 15 14 13 13 14 13 11 5 6 5 5 7 7 8 7 7 7 7 6 5 5 5 4 4 4 5 4 4 4 3 2 2 2 2 3 3 4 4 4 4 3 2 3 2 3 3 3 3 4 4 3 4 5 5 5 4 4 3 3 2 3 2 4 5 2 1
4 3 4 5 5 8 4 3 3 4 3 4 6 3 1 2 3 9 11 5 3 2 3 2 7 6 13 17 19 18 16 15 14 13 13 12 11 7 6 6 6 5 7 7 7 6 7 7 7 6 6 6 6 5 4 4 3 3 3 3 3 3 2 2 3 3 3 3 4 4 4 3 3 3 3 3 3 3 4 4 4 4 4 4 4 4 5 4 4 3 3 3 4 4 4 4 2
4 4 1 6 6 8 7 8 2 2 1 7 2 2 4 2 5 2 8 2 3 4 1 7 10 9 15 15 15 17 16 15 14 12 11 11 12 9 8 8 7 8 8 8 7 6 7 8 7 7 6 6 5 5 5 4 4 5 4 3 3 2 1 3 4 3 2 3 3 2 2 3 3 3 2 3 4 4 6 5 2 3 2 4 4 4 5 4 4 4 3 4 4 4 4 4 3
3 4 3 5 2 7 8 6 6 3 7 7 1 5 6 5 2 5 7 1 2 3 6 11 13 12 13 12 14 14 13 13 12 11 9 7 9 9 7 6 9 9 9 8 7 7 8 7 8 8 7 7 6 5 5 5 4 4 4 3 3 4 4 4 0 2 3 2 2 3 3 2 3 4 4 5 5 6 4 3 3 5 4 5 3 4 5 5 5 4 4 4 4 3 3 2 3
6 7 1 4 7 7 4 7 6 6 4 2 3 1 1 1 4 4 1 1 3 7 8 12 14 13 14 13 13 13 13 13 12 11 9 6 6 9 7 6 6 10 9 9 9 8 8 9 9 9 8 7 6 5 4 4 4 3 4 5 4 4 3 3 2 3 2 2 1 1 2 2 3 4 4 4 5 3 1 5 4 4 8 2 3 5 5 4 4 4 5 5 5 4 4 2 2
3 5 6 9 10 6 3 3 2 1 3 1 2 4 4 1 1 3 1 1 5 8 9 10 14 13 13 13 12 12 13 12 12 9 8 7 7 7 7 5 6 6 6 8 7 7 8 8 8 8 7 7 6 6 5 5 4 3 4 3 4 4 3 3 3 3 2 1 1 3 4 4 4 3 3 3 2 1 2 4 4 6 2 0 4 4 3 4 4 4 4 4 4 4 4 3 2
2 5 6 9 5 3 5 5 5 1 1 1 1 4 2 1 2 1 0 3 4 10 8 9 11 12 11 11 12 10 9 8 7 9 12 11 9 8 8 7 6 5 6 7 6 4 5 8 7 7 7 6 6 6 5 5 5 5 4 4 4 3 3 3 4 3 2 2 3 3 5 6 3 1 2 2 4 2 3 3 4 2 2 3 4 3 3 3 4 4 3 2 2 2 3 3 3
3 1 6 7 4 3 5 3 3 3 2 3 2 5 2 2 2 3 1 5 5 8 9 9 9 9 10 10 8 8 8 8 6 8 9 8 6 6 8 6 7 6 3 3 4 4 5 7 6 7 6 6 6 6 5 5 4 4 4 4 4 4 4 4 4 4 3 1 2 2 3 6 5 2 2 3 4 4 4 4 3 2 1 4 5 4 5 4 3 3 3 3 3 2 3 4 3
1 2 2 6 4 2 9 1 3 3 3 2 2 2 2 4 3 2 3 7 8 9 9 9 7 7 8 8 8 7 5 6 8 7 7 6 7 7 8 6 5 5 5 4 4 5 3 4 5 5 6 6 7 5 5 5 4 4 3 3 3 3 2 2 2 2 1 2 2 1 1 4 2 1 1 6 6 5 4 4 5 4 5 7 4 4 4 4 5 5 3 3 3 3 4 3 4
2 3 1 2 3 2 7 5 8 7 4 1 2 2 2 2 3 5 1 4 11 10 9 9 8 8 8 7 7 9 8 6 6 5 5 4 5 6 7 7 6 4 4 5 7 6 5 4 5 5 6 6 6 5 5 4 3 3 3 3 2 2 2 2 2 1 2 2 2 4 5 5 4 2 2 3 4 4 2 3 4 4 6 5 3 4 6 4 4 5 5 5 3 3 2 1 1
2 2 1 0 2 2 5 4 9 7 2 5 2 1 2 4 4 3 1 2 4 8 9 9 9 8 9 8 9 9 8 5 5 5 5 5 6 6 7 9 7 6 7 6 5 5 6 5 7 8 8 7 7 6 5 4 3 2 2 3 3 2 2 2 2 3 2 3 3 3 3 6 5 5 4 3 3 2 2 2 3 4 6 5 5 5 6 6 2 4 4 4 4 3 2 2 1
2 2 1 1 1 2 2 6 3 2 3 4 4 2 4 0 5 1 1 3 4 5 8 9 9 9 9 9 8 6 6 6 6 7 5 4 5 5 6 7 7 6 5 6 6 6 6 6 6 7 9 8 7 6 5 4 3 3 2 3 3 3 2 3 3 3 3 3 3 3 4 4 5 5 4 4 4 3 2 3 3 3 3 5 5 5 6 4 6 6 4 4 4 4 3 1 0
2 2 2 1 2 3 2 5 5 7 6 2 5 1 0 3 5 0 1 3 5 7 8 8 9 9 9 7 6 7 6 7 8 7 5 5 5 5 4 4 4 4 3 3 4 5 6 5 5 4 5 5 5 5 5 4 4 4 3 3 3 3 3 2 3 3 4 3 3 3 5 5 5 5 4 4 3 3 3 2 2 2 3 3 3 4 4 5 6 6 6 6 4 5 5 5 3
0 2 1 1 1 2 4 2 5 7 5 3 1 1 4 5 4 4 6 2 5 6 6 8 9 8 8 7 7 8 7 7 6 5 6 6 5 4 4 4 4 3 3 4 4 4 5 4 4 5 5 6 5 5 6 5 5 5 4 4 5 4 4 3 4 4 3 4 4 4 4 4 5 5 4 4 3 4 3 2 3 3 2 3 3 3 4 4 6 7 6 6 5 5 5 5 3
2 2 2 1 1 2 0 1 2 5 3 3 2 3 4 6 6 2 5 3 6 6 3 3 5 6 6 7 6 6 6 7 4 3 6 5 5 5 4 3 3 2 2 3 5 6 6 5 4 4 4 5 5 5 5 5 4 4 5 5 5 4 4 4 3 3 3 4 3 3 4 3 4 3 3 3 4 4 3 3 4 3 2 2 4 4 4 4 5 6 7 8 7 6 6 4 4
4 2 2 2 1 2 3 2 2 2 2 2 2 1 2 5 6 1 5 3 4 6 8 7 7 8 9 8 9 8 8 7 5 4 6 6 6 5 4 4 4 3 3 3 4 5 6 7 7 7 4 4 5 5 5 5 5 4 3 3 5 4 4 4 4 3 3 3 3 4 4 4 4 4 3 3 4 5 4 4 3 4 4 5 4 3 5 5 5 5 5 6 8 7 6 5 4
2 2 3 2 2 1 2 2 2 1 3 1 0 2 2 4 5 0 2 3 9 10 8 8 9 9 9 10 10 9 6 3 5 5 6 7 7 7 6 5 6 7 6 4 5 6 6 6 7 6 5 4 4 5 4 3 3 3 4 3 4 4 5 5 5 4 3 3 3 4 4 5 5 4 3 4 4 5 5 4 4 4 5 5 5 6 5 5 5 5 4 4 4 5 3 4 5
2 3 2 1 3 4 6 1 1 2 2 1 1 5 2 3 4 1 4 8 6 6 9 9 10 11 10 10 10 7 6 8 8 8 7 8 9 9 7 7 7 7 7 7 6 6 5 6 5 6 5 5 4 3 4 4 2 2 2 3 4 4 2 2 3 3 3 4 4 4 4 4 5 5 4 5 5 4 5 6 6 6 6 6 6 7 7 6 5 5 4 4 5 2 3 2 5
3 2 3 3 2 2 1 2 2 4 3 2 2 4 4 3 3 5 3 4 4 3 4 7 7 10 12 13 11 10 11 10 12 12 11 10 11 10 9 9 8 7 7 7 6 7 5 5 6 6 6 5 5 4 3 4 4 4 5 5 3 3 4 3 3 3 4 5 5 4 4 3 4 5 5 6 6 6 6 6 5 5 5 5 6 6 6 7 6 5 4 4 5 6 2 2 1
0 2 2 1 2 2 2 2 4 1 2 1 2 4 4 2 3 3 1 1 4 4 2 5 7 8 3 3 5 8 11 11 11 10 10 10 11 13 13 10 9 9 9 9 9 8 6 9 8 8 7 6 5 5 4 6 6 6 5 6 6 6 4 4 4 3 3 4 4 5 4 4 4 4 4 5 7 6 6 6 6 6 5 5 5 6 6 5 6 5 5 4 3 4 5 1 3
2 6 8 6 3 5 2 2 2 1 2 5 4 4 1 2 1 2 2 3 3 1 3 5 6 6 5 8 11 9 10 10 12 13 14 13 13 11 10 11 11 10 10 10 9 9 8 8 8 7 6 5 6 6 6 6 6 6 6 6 5 5 5 4 4 4 4 3 4 3 4 4 4 4 4 6 6 6 6 5 6 6 6 5 5 6 6 5 6 6 5 4 5 4 4 3 3
2 3 7 5 4 2 3 1 0 2 3 3 2 4 2 1 2 4 1 3 5 5 4 6 1 2 6 9 9 9 10 10 11 11 11 12 11 10 12 13 13 12 11 9 9 9 9 8 8 8 7 6 5 6 6 6 6 6 7 6 6 6 6 3 1 2 3 4 3 4 4 4 4 5 4 5 5 6 5 5 6 6 6 6 6 6 6 6 6 5 5 5 4 3 2 4 3
3 2 6 6 5 4 4 2 2 1 0 2 2 1 5 4 3 1 2 4 3 3 1 3 3 2 5 7 9 10 10 11 11 13 15 15 13 15 16 15 12 12 10 10 9 8 10 10 9 9 7 7 5 5 6 5 7 6 6 5 4 5 5 5 5 3 2 3 4 4 4 3 3 4 5 5 5 6 6 6 7 7 7 6 6 6 6 5 5 5 5 5 5 4 4 3 3
1 1 2 5 3 2 4 2 1 1 2 4 2 2 3 3 1 2 2 4 2 2 5 6 5 6 5 6 6 8 10 11 12 11 14 15 16 15 13 12 11 9 10 11 11 8 8 8 8 8 8 8 6 7 6 6 5 6 6 5 4 2 2 3 4 4 4 3 5 4 4 4 4 3 4 5 5 7 7 7 7 7 7 6 6 6 6 7 7 6 6 6 6 5 5 4 3
2 5 8 6 6 6 2 2 2 1 2 4 2 1 5 5 1 3 2 1 2 3 6 6 4 7 7 8 8 8 8 9 10 14 12 11 11 8 8 7 7 8 8 8 7 7 8 8 9 10 10 8 7 8 7 7 6 6 6 6 6 4 3 3 4 5 4 4 6 5 4 4 4 4 4 5 6 7 7 7 7 8 7 6 6 7 7 7 7 7 7 7 6 6 5 5 5
7 3 6 5 5 3 2 3 1 1 2 6 1 1 3 6 0 2 2 2 3 6 5 3 5 5 6 7 9 8 8 8 9 10 11 11 11 10 10 12 11 8 8 10 9 10 9 9 10 11 11 8 8 8 8 8 7 6 7 7 7 6 6 6 6 5 4 5 5 5 5 5 4 4 4 4 5 6 6 7 7 7 7 6 6 7 6 7 7 7 6 7 7 7 6 6 6
4 2 3 4 3 1 2 2 1 2 3 0 3 1 3 5 1 2 1 2 4 5 6 8 8 9 10 10 10 9 8 7 8 7 8 11 11 11 12 13 11 11 10 11 10 10 10 9 10 12 10 10 9 8 8 8 7 7 6 8 8 7 7 6 8 8 7 7 6 6 5 5 5 5 4 5 5 5 5 6 7 7 7 7 7 6 6 6 6 6 6 5 6 6 5 5 5
3 3 3 4 1 1 1 1 3 4 4 3 3 1 2 7 6 3 0 1 2 2 4 4 7 9 10 10 11 9 8 8 6 4 5 8 10 11 13 13 11 12 13 14 12 10 9 10 12 13 13 11 10 9 9 9 8 8 8 8 7 6 7 7 8 7 7 6 6 6 6 6 6 6 6 6 6 7 6 6 6 6 6 6 7 7 7 7 7 6 6 6 6 6 5 5 5
5 6 3 4 4 1 2 1 1 3 4 2 1 1 3 2 2 3 2 3 2 3 3 4 5 7 9 9 9 8 8 8 7 3 3 6 7 8 9 9 9 8 9 10 10 8 8 8 10 12 12 11 9 8 9 9 9 8 8 7 7 6 6 6 6 6 7 6 6 7 7 7 7 7 7 7 7 7 6 6 6 6 7 7 7 7 7 6 6 6 6 6 6 5 5 6 6
4 3 5 4 4 4 2 4 4 4 1 2 1 2 1 2 3 2 1 3 3 3 3 4 5 5 6 6 6 8 9 8 5 3 0 3 4 6 6 7 7 7 8 9 9 9 8 8 9 10 9 10 10 10 8 9 8 8 7 7 6 5 6 5 5 5 6 6 5 6 6 5 6 6 7 6 6 6 6 6 7 7 7 7 7 7 6 6 6 6 6 6 5 4 5 5 6
1 1 3 3 4 4 7 1 3 3 1 1 3 2 1 0 2 2 1 2 3 5 5 6 6 6 6 5 8 10 9 9 7 5 3 3 4 6 6 6 6 7 8 7 8 7 8 9 9 10 10 9 10 10 9 9 8 6 7 7 7 6 5 4 3 3 3 4 6 6 6 6 5 5 4 5 6 6 7 7 7 7 7 6 6 7 6 6 6 6 5 5 5 3 4 5 5
3 3 5 1 3 4 5 2 4 1 1 4 2 2 3 2 2 3 4 3 3 4 5 6 6 6 5 7 8 9 9 10 9 7 6 5 3 4 5 7 7 6 7 8 8 8 8 7 7 9 10 9 10 10 8 7 6 6 7 7 7 6 6 7 6 6 6 5 5 5 5 5 4 3 4 4 6 6 7 7 7 7 6 5 6 6 6 6 5 5 5 5 5 4 4 5 4
7 4 3 5 1 3 2 3 1 0 4 2 2 3 2 4 2 5 5 2 2 3 4 4 5 6 8 7 8 10 10 10 10 9 7 7 5 2 4 5 6 7 7 7 8 7 7 8 9 9 9 10 8 7 8 7 7 7 7 7 7 8 7 7 6 6 6 5 5 5 4 3 5 5 4 4 5 7 6 7 7 6 6 5 5 5 5 5 5 4 5 4 3 3 4 3 3
2 2 3 3 2 3 1 1 2 2 2 2 2 1 2 5 4 7 8 7 5 2 2 2 6 7 6 7 9 9 10 9 10 11 10 9 7 4 3 4 3 5 6 7 7 8 8 8 8 8 8 7 6 5 6 5 7 5 5 7 8 7 7 7 6 6 6 7 7 7 7 6 5 5 5 5 6 6 7 7 7 7 6 6 5 5 5 4 4 4 3 3 2 2 2 3 3
4 1 3 2 2 2 3 2 1 2 2 1 1 3 3 6 3 10 11 8 6 4 2 3 3 3 4 5 6 8 9 9 10 10 11 11 11 10 7 5 5 3 1 5 7 7 8 7 7 7 6 5 6 7 7 8 7 7 6 7 8 8 8 8 7 7 7 8 8 7 7 6 6 6 6 7 7 8 8 8 7 7 6 6 6 5 4 5 4 3 3 2 2 2 2 2 3
3 2 1 2 3 1 1 2 2 3 2 2 1 2 4 2 2 7 11 9 7 5 5 2 2 2 3 4 5 6 7 8 9 9 9 11 11 11 11 9 9 7 4 3 1 2 4 5 7 8 9 9 10 10 9 8 7 8 8 9 8 8 9 8 8 8 8 8 7 7 7 6 6 6 6 7 8 8 9 8 9 8 8 7 6 5 4 5 4 4 3 3 3 2 1 2 1
1 1 2 1 3 3 2 4 3 1 3 3 3 4 1 1 2 3 9 7 6 4 1 2 1 3 4 4 5 6 6 7 8 8 8 9 11 11 12 12 11 10 8 7 5 2 1 2 3 4 6 7 8 8 8 9 8 7 9 10 10 9 8 8 9 9 9 9 8 7 7 6 7 7 7 8 9 8 8 9 9 9 8 8 7 7 6 5 5 5 4 3 3 2 2 2 1
Wind_Direction
251 323 332 312 199 229 208 41 235 119 236 239 307 205 44 238 287 293 221 113 219 86 267 207 146 145 168 190 157 89 0 169 154 159 195 46 137 136 133 129 126 123 129 138 139 142 142 146 146 139 134 135 138 137 135 134 132 129 127 125 124 121 120 121 123 125 126 127 129 130 129 129 128 126 124 124 125 126 123 122 122 121 118 119 121 128 132 133 135 137 139 137 137 136 136 133 130
303 5 28 212 186 196 162 296 87 215 33 249 211 74 283 238 273 240 268 26 343 110 126 112 102 78 66 105 118 116 62 11 357 13 88 121 126 116 134 130 126 123 130 136 139 137 141 147 147 139 135 135 138 138 136 136 135 133 130 130 129 126 127 128 129 131 130 129 129 130 128 126 124 122 119 110 98 94 92 92 115 115 117 120 123 127 130 134 135 137 139 139 140 137 135 131 130
22 307 117 166 126 354 111 281 237 57 211 241 176 227 56 269 256 286 283 304 123 123 117 104 99 79 102 122 139 249 127 36 110 103 92 141 133 133 136 121 115 123 131 134 141 141 144 149 140 140 138 136 142 141 138 137 137 136 134 133 132 128 127 128 129 129 130 130 130 130 129 126 122 119 112 107 106 107 105 95 97 114 121 122 123 126 130 133 135 138 138 139 137 136 134 131 132
91 90 242 175 133 276 136 101 95 169 219 309 307 144 271 296 306 307 289 244 126 338 264 157 129 339 198 161 105 91 101 151 156 142 134 157 134 134 137 118 116 123 131 136 138 144 143 141 142 141 142 140 141 140 139 138 137 136 135 134 132 128 127 128 128 128 128 130 130 127 127 127 123 125 123 120 119 121 125 127 129 119 123 123 125 128 130 134 139 138 137 134 134 131 129 131 131
288 99 267 213 210 134 175 63 115 182 230 171 14 344 303 302 336 22 99 174 309 318 288 92 115 29 24 80 87 262 135 108 147 159 135 123 127 134 134 124 120 122 132 136 139 142 143 141 147 141 145 139 141 141 139 139 138 136 134 135 134 131 131 131 132 132 131 130 129 129 129 130 129 131 128 126 126 127 128 127 129 124 123 126 128 130 133 138 141 141 137 133 131 128 127 126 126
127 233 82 252 276 40 102 173 168 207 8 152 188 70 333 19 74 75 109 251 296 285 14 110 336 171 139 33 8 119 117 156 149 133 142 135 135 136 131 122 118 122 126 133 137 142 143 141 143 140 145 143 142 143 143 142 143 142 140 139 138 134 133 134 135 135 133 132 133 134 136 137 136 133 131 130 128 129 132 136 132 131 128 131 132 132 137 144 146 139 133 134 129 125 122 120 114
265 168 32 108 104 274 234 222 202 211 148 210 289 162 331 352 114 295 41 143 125 66 34 70 114 121 101 119 102 57 312 203 159 138 154 136 133 134 131 121 117 119 127 132 139 141 141 142 143 144 155 146 145 145 146 145 145 143 143 141 140 139 138 137 136 137 137 137 138 139 141 142 139 136 134 135 133 131 136 141 137 139 138 135 135 137 142 146 145 131 132 133 128 127 120 112 111
75 251 30 206 117 263 192 91 231 207 131 217 300 277 260 307 356 329 341 217 140 329 74 53 16 359 77 302 129 43 69 28 111 129 127 135 136 134 133 125 120 120 122 130 138 142 137 142 147 153 154 149 147 147 146 146 147 146 144 145 144 143 139 137 136 135 138 139 141 141 141 141 141 141 140 140 138 137 137 145 143 138 132 135 133 135 139 143 136 136 133 131 130 131 127 113 101
338 78 218 168 186 58 133 218 295 229 294 218 259 233 266 281 293 286 281 282 132 195 143 10 10 207 140 93 85 91 70 106 118 123 130 129 135 138 133 131 125 124 125 133 138 142 144 142 151 150 151 152 149 150 148 146 147 146 148 148 145 141 138 139 139 139 141 144 144 145 144 143 144 145 145 147 146 145 146 146 148 142 141 139 136 133 131 133 131 131 135 137 136 133 126 112 102
105 287 161 121 60 217 321 157 224 158 252 268 263 270 242 209 266 247 265 273 250 156 141 101 12 88 118 97 121 85 104 125 125 128 129 133 134 137 128 124 126 127 129 134 139 143 146 145 152 155 151 153 149 152 148 145 146 146 146 146 143 141 143 144 144 147 150 149 151 150 149 148 148 150 152 153 151 151 150 147 149 146 138 138 138 140 135 131 132 136 142 142 138 133 126 122 118
175 48 10 189 190 232 225 155 238 229 244 278 281 249 254 250 256 277 254 286 127 201 155 221 88 100 122 86 77 333 156 134 139 135 134 132 134 133 124 123 124 128 133 136 141 143 145 151 154 156 151 149 147 147 145 144 145 143 140 140 142 144 147 147 149 152 154 157 158 155 155 153 153 155 158 156 156 156 153 150 150 152 148 139 141 141 139 135 132 132 130 127 126 126 128 129 126
163 272 194 183 222 230 97 238 266 262 263 301 277 48 166 184 182 233 245 236 190 197 186 187 147 148 89 110 113 135 137 140 129 133 138 130 129 130 128 128 129 127 127 134 138 140 143 147 155 155 149 137 137 139 136 141 143 146 145 145 145 148 149 150 150 153 157 159 160 158 157 158 160 161 163 160 159 158 155 155 153 155 162 154 144 143 140 138 135 130 122 118 116 120 124 129 131
341 146 120 189 95 205 116 268 286 297 305 232 245 86 115 152 203 232 237 237 199 191 204 193 130 192 120 88 116 155 151 134 131 130 133 135 132 132 130 129 130 130 127 131 133 136 141 145 150 152 144 141 135 135 142 125 146 150 149 150 150 149 152 153 154 154 159 161 162 160 161 162 165 165 162 159 158 157 161 160 158 162 166 168 157 147 141 137 133 135 133 129 126 125 128 130 132
202 211 161 212 40 119 183 40 261 261 230 292 256 173 190 278 245 249 216 221 205 205 86 146 143 129 86 130 162 165 157 151 126 124 135 132 131 131 131 130 132 134 130 130 133 135 140 142 142 143 142 146 150 130 135 142 172 149 150 152 148 148 152 154 153 152 160 166 164 160 163 166 169 168 164 159 162 163 162 164 164 167 169 170 170 161 144 136 137 135 136 133 130 131 131 132 128
154 185 87 93 128 207 180 229 223 194 254 188 71 341 333 226 279 214 206 215 196 29 123 102 134 182 183 178 174 179 156 155 139 123 129 132 132 133 132 132 136 137 136 135 134 138 136 136 132 139 134 140 141 137 141 144 186 148 148 153 150 148 151 155 155 161 166 170 167 165 172 175 176 177 158 156 147 162 163 166 166 171 171 173 176 175 152 139 138 143 143 135 134 133 135 128 116
120 134 48 200 134 240 169 226 150 336 245 170 82 292 313 136 229 217 227 236 118 179 173 160 342 303 124 182 119 156 147 134 128 123 127 133 134 133 135 140 140 142 140 141 139 140 139 135 137 138 137 140 149 152 159 156 165 153 149 153 155 152 154 157 163 166 167 172 171 160 171 173 183 179 153 167 156 159 198 163 179 171 173 174 177 178 165 142 140 146 137 137 139 135 128 120 115
136 285 171 67 209 212 169 217 164 217 308 259 249 360 339 315 32 334 301 184 143 156 83 19 144 339 170 102 138 139 136 125 125 125 121 121 128 140 142 142 142 142 139 142 139 141 143 135 139 137 140 142 144 145 147 149 155 148 146 147 158 162 157 167 171 169 164 173 175 162 147 176 170 163 158 184 156 177 190 191 175 169 173 173 173 178 174 156 141 137 140 135 137 133 128 122 108
203 131 114 201 113 205 197 212 196 43 307 318 316 357 295 268 105 91 111 93 108 115 106 65 67 51 73 105 130 128 128 127 132 130 131 134 148 143 146 155 154 154 146 142 148 145 144 139 139 143 140 145 144 140 145 152 151 159 156 160 169 167 167 164 177 177 175 174 164 164 188 173 161 158 181 187 180 172 188 203 173 176 176 172 171 172 175 180 146 139 134 133 132 136 127 143 126
126 115 215 240 177 242 185 193 225 282 303 310 301 326 250 252 165 140 162 144 142 139 120 134 86 90 99 126 132 131 131 130 133 132 135 147 154 155 154 143 140 151 147 141 144 149 145 143 142 147 149 148 145 143 146 148 156 162 161 174 176 177 175 184 184 183 183 178 178 180 179 171 173 166 176 172 155 121 187 204 186 190 157 187 175 174 192 187 159 141 134 131 122 110 109 128 142
100 209 194 238 207 252 220 192 250 221 288 294 306 338 258 125 248 139 180 157 176 170 157 154 146 144 143 145 141 134 133 137 136 148 155 154 155 150 160 145 150 140 142 144 147 145 145 147 149 147 151 151 150 145 148 146 151 160 171 166 171 174 182 181 186 186 186 189 183 175 178 173 173 168 140 163 115 168 234 217 179 165 175 196 181 194 198 203 201 142 136 128 137 152 149 224 168
135 213 224 244 192 247 245 199 240 258 219 266 290 301 221 206 230 185 148 147 207 219 212 171 169 155 156 154 147 141 146 152 154 160 156 156 158 160 153 162 156 148 139 139 144 153 154 150 149 157 151 152 147 140 145 144 152 158 165 151 159 164 175 171 184 201 198 192 182 183 180 167 170 144 154 176 180 186 209 191 182 199 211 192 181 208 205 193 210 194 159 163 167 157 150 212 258
138 235 248 225 128 255 259 243 224 228 149 244 285 315 336 40 186 164 167 183 195 199 195 232 313 161 155 156 150 151 158 161 164 161 164 163 160 157 131 119 97 114 134 149 154 155 159 161 160 155 150 149 149 147 150 156 156 159 169 159 136 124 132 163 196 203 204 197 191 190 167 162 174 164 164 173 172 190 192 201 194 199 202 206 195 207 208 206 203 208 176 153 164 161 148 160 249
236 230 254 238 234 262 299 256 217 181 214 241 298 317 316 145 251 177 186 213 52 353 289 202 149 164 164 149 150 157 162 161 160 166 166 162 159 146 140 145 146 146 160 160 161 157 159 164 163 158 154 154 158 151 158 167 165 165 159 165 161 147 165 165 207 220 200 198 204 191 174 166 174 171 173 169 183 193 202 198 192 194 203 210 206 212 210 207 213 205 189 190 173 174 158 151 175
240 256 327 269 190 225 243 256 207 220 270 264 148 15 278 134 218 200 193 162 313 327 228 139 129 137 152 150 159 159 159 156 162 164 165 164 162 158 154 162 167 168 174 166 168 160 161 163 163 162 159 165 161 161 170 184 172 168 161 178 144 137 215 225 223 215 235 219 211 192 189 177 172 175 175 176 186 204 207 191 162 174 205 231 208 217 213 210 213 216 205 191 184 175 181 157 160
210 264 231 264 189 236 252 263 279 267 252 256 212 264 260 209 214 147 207 72 8 107 127 124 128 142 152 151 156 157 155 157 161 162 157 157 158 152 167 174 172 171 169 164 167 166 169 159 164 164 161 164 159 166 178 180 175 180 170 188 156 210 220 219 167 277 234 227 212 203 184 175 186 184 189 193 208 215 204 84 69 35 318 241 230 223 224 214 214 215 206 205 196 175 173 162 167
203 239 203 260 259 263 283 289 275 260 264 192 222 208 20 227 114 187 329 349 113 125 127 131 132 142 158 157 158 159 160 163 161 162 155 138 146 157 167 169 165 172 167 166 167 171 169 167 169 166 163 162 159 162 160 176 177 183 192 187 182 197 181 158 193 222 234 228 204 196 184 204 205 213 203 199 201 219 176 76 95 170 225 222 237 229 221 214 224 217 208 201 190 176 165 160 186
177 239 240 264 277 316 336 283 296 17 260 167 189 72 95 104 236 178 53 103 133 123 129 144 143 148 159 163 160 167 167 169 169 148 130 150 166 171 156 166 181 155 149 165 174 168 169 171 166 165 162 159 157 162 164 168 177 190 187 207 197 203 181 181 200 220 181 139 106 62 57 45 59 13 30 74 198 186 98 145 193 203 146 123 250 253 242 221 227 236 213 201 203 192 165 147 193
210 256 279 256 281 257 264 255 284 266 36 212 163 75 205 6 203 35 360 163 164 133 143 152 148 151 154 155 163 169 174 167 161 153 157 165 176 170 162 171 178 159 173 174 174 158 154 172 159 162 160 159 159 163 165 171 181 187 181 176 171 158 153 179 204 196 152 131 101 86 74 62 74 191 162 147 238 150 202 202 214 224 151 207 215 248 245 229 229 245 278 287 259 229 178 163 173
283 285 287 304 354 138 8 10 23 293 51 238 245 117 53 292 177 19 208 161 162 137 145 157 155 150 152 156 161 169 179 169 165 181 173 177 158 155 159 175 167 171 176 149 153 160 161 163 157 160 158 162 165 164 168 174 186 186 181 197 185 172 189 196 227 214 176 97 45 40 85 65 35 46 129 167 246 214 209 201 202 189 199 227 205 191 242 232 208 231 243 245 241 235 218 189 166
299 88 335 291 350 68 16 3 315 137 28 281 271 216 211 248 264 328 161 158 144 135 152 161 157 154 157 162 168 173 175 175 184 189 176 172 164 166 160 172 178 175 159 154 151 168 146 153 155 150 159 161 163 164 166 171 177 173 174 174 162 169 201 200 241 257 249 113 133 61 42 92 247 189 104 138 188 217 204 208 213 210 182 227 195 186 205 226 191 180 184 227 205 214 212 205 199
269 339 78 15 297 52 12 24 309 98 333 280 211 301 321 248 336 34 170 194 164 158 160 166 164 163 165 171 175 184 192 197 184 185 183 176 162 164 160 157 175 182 151 161 175 157 150 138 150 144 153 153 154 155 160 164 160 164 165 156 143 148 144 152 138 110 97 89 115 151 137 159 165 177 216 170 185 235 217 204 205 199 168 197 186 182 201 227 187 181 182 193 182 188 191 153 225
11 214 51 57 339 71 336 29 26 52 75 327 245 251 280 321 349 17 78 243 226 160 165 169 171 170 172 179 189 195 191 184 195 201 190 179 178 167 171 170 175 180 182 166 147 140 138 138 154 154 157 152 151 150 149 144 149 151 156 150 130 132 135 131 117 104 95 91 96 109 126 148 163 168 170 156 204 218 210 191 205 204 181 170 175 186 200 216 236 233 202 213 204 192 194 193 219
22 355 137 358 321 20 288 65 65 58 249 41 358 325 290 112 18 18 76 211 214 187 178 174 177 178 181 189 194 193 178 193 204 206 190 186 192 182 176 173 182 186 175 160 156 148 138 146 147 149 155 149 135 123 121 118 125 131 126 114 129 136 142 136 130 125 119 111 118 115 126 131 135 146 150 165 173 176 169 210 208 198 203 201 197 178 202 197 222 230 242 228 238 228 214 175 246
59 341 78 313 16 352 86 318 81 2 12 56 24 248 360 298 315 264 206 202 208 202 190 187 184 189 193 192 193 195 199 193 202 198 190 199 189 195 190 176 174 180 173 165 152 149 146 144 146 145 132 129 128 126 120 115 111 112 110 106 104 102 100 104 125 135 124 128 123 112 121 118 121 130 138 146 129 128 140 176 159 174 195 207 206 195 210 193 196 206 222 236 233 231 229 236 233
132 121 103 127 219 265 321 319 12 354 51 65 309 305 294 266 280 233 190 164 207 219 206 197 197 196 195 201 204 205 205 206 198 190 182 197 188 193 187 180 182 188 187 163 145 131 130 129 136 140 132 127 117 112 110 102 103 95 94 101 97 91 89 96 125 129 118 112 102 104 97 100 113 125 136 134 113 108 118 138 129 130 174 183 159 184 204 195 188 193 210 218 228 221 226 232 224
277 172 101 167 118 140 284 207 19 2 355 94 77 25 329 290 273 203 189 170 196 215 220 222 215 212 210 212 214 212 214 216 188 177 177 193 185 178 179 174 182 196 190 166 147 143 133 129 134 132 136 129 121 120 127 121 121 123 118 113 97 89 97 107 110 112 117 104 94 88 83 79 86 96 108 115 108 112 113 113 96 91 105 156 152 142 162 184 195 174 201 211 214 216 216 216 213
89 103 153 170 221 245 261 261 352 336 245 92 40 282 260 284 283 8 190 148 189 206 211 204 206 205 211 214 216 213 210 213 184 179 181 186 176 174 168 167 175 188 202 191 164 152 153 151 149 148 146 146 140 139 141 140 132 117 104 109 111 113 110 114 110 109 100 88 76 81 79 80 81 85 85 102 106 111 105 101 106 91 85 97 117 149 156 149 134 139 176 197 205 206 206 199 201
162 152 184 176 218 211 101 67 7 353 329 41 319 276 289 280 291 198 123 194 216 209 211 215 208 208 212 217 219 215 209 174 192 185 182 174 179 177 168 173 173 187 199 193 187 168 164 153 156 140 145 161 153 152 145 140 143 144 145 138 124 123 132 136 130 120 100 92 82 76 78 80 81 80 78 85 96 109 112 103 88 94 99 85 83 94 102 113 133 148 158 139 175 193 170 176 165
107 218 172 230 227 277 303 251 357 350 283 328 80 313 276 256 284 315 196 205 226 221 219 222 204 202 210 217 220 211 196 206 201 205 182 184 178 180 180 179 187 196 181 190 185 170 169 163 152 145 158 164 166 156 151 141 123 94 110 128 125 110 47 38 95 95 102 99 71 69 69 73 81 78 75 77 82 89 99 99 94 90 86 94 92 88 96 103 119 138 155 153 158 143 119 144 173
163 156 187 231 63 300 192 163 350 15 13 343 339 301 288 286 279 278 267 248 273 311 273 251 229 218 212 212 212 208 209 198 205 201 195 186 183 182 186 186 186 183 180 191 186 184 170 172 159 161 165 171 161 170 132 94 93 92 73 91 70 84 121 118 104 107 106 105 91 75 72 66 74 80 80 88 83 75 81 89 94 88 81 76 84 82 77 78 79 88 114 130 147 146 126 107 251
288 221 222 253 182 207 236 339 328 267 117 27 238 242 264 66 175 203 77 218 255 245 241 223 226 235 261 294 269 234 226 210 211 202 200 190 188 193 191 183 176 186 187 186 181 184 180 179 170 169 168 171 167 156 140 126 118 105 100 91 95 94 103 124 131 124 111 106 107 87 73 63 75 83 79 79 88 84 81 86 88 84 80 74 77 77 68 56 56 60 68 87 93 119 122 89 21
191 225 214 215 178 183 237 309 293 329 211 53 354 301 204 338 281 178 9 321 264 275 301 237 221 212 215 234 236 232 234 223 215 211 207 200 199 189 177 178 188 191 192 187 178 185 182 174 171 169 163 167 166 157 150 146 146 141 145 142 145 144 146 162 164 153 147 134 99 95 88 71 84 83 82 87 89 92 85 86 91 93 88 79 76 79 76 69 57 54 37 42 69 57 101 115 83
174 240 194 178 166 123 130 142 280 281 305 58 334 292 274 307 80 133 165 323 283 284 275 291 350 204 220 233 238 232 232 226 223 221 211 207 207 195 190 188 193 192 194 169 178 189 186 176 172 164 168 171 170 160 162 153 150 161 167 169 164 165 160 170 128 124 139 119 114 106 95 84 85 95 86 91 92 92 92 88 88 88 86 81 79 81 75 69 64 53 47 54 55 53 46 104 107
205 81 145 143 140 162 172 140 208 303 355 252 49 4 276 282 259 77 292 290 247 239 277 356 333 264 235 240 241 238 236 232 222 217 214 209 200 198 194 193 190 195 171 168 183 185 185 180 173 170 172 171 173 164 172 170 162 167 164 168 169 177 169 159 166 150 119 130 136 125 119 110 99 98 106 101 102 101 98 94 93 92 88 84 83 81 82 80 79 70 61 63 61 56 50 64 69
346 117 158 132 148 130 131 175 127 14 290 271 154 109 264 233 268 149 255 237 240 357 38 14 347 334 302 271 256 253 254 252 241 231 217 210 204 202 197 190 191 169 166 181 185 180 175 178 176 168 173 173 170 177 172 178 172 167 169 167 179 174 128 136 151 151 152 149 146 133 131 117 110 104 107 113 110 113 110 109 103 99 94 89 86 87 85 82 79 77 71 65 63 62 59 56 58
55 129 94 92 89 68 60 137 136 132 262 262 223 97 265 280 268 289 133 311 342 319 336 314 314 302 299 298 299 290 282 273 259 249 238 220 210 199 193 181 168 182 175 172 169 166 178 177 179 176 182 181 169 178 179 173 176 166 171 177 183 169 155 142 161 160 162 165 160 151 140 134 130 122 115 117 119 120 121 119 114 109 106 100 91 93 94 89 83 81 74 71 68 68 61 54 54
128 197 96 74 55 69 64 56 101 127 240 252 55 356 254 289 136 325 332 24 310 308 304 304 318 321 319 315 309 308 298 280 275 264 240 217 197 189 177 188 190 168 166 175 177 180 178 181 180 185 186 180 173 179 180 178 179 179 180 180 185 173 165 160 159 164 165 172 172 162 157 142 140 132 129 122 122 128 125 122 118 115 110 110 108 103 94 93 90 88 85 78 69 67 67 64 63
164 164 127 120 99 52 106 51 53 227 253 194 27 330 188 238 174 119 65 304 260 263 287 316 329 336 332 327 323 320 312 298 283 265 237 199 173 174 173 184 176 174 171 182 183 180 183 182 180 184 185 186 180 178 181 180 181 188 191 183 185 183 168 173 175 171 176 179 179 170 156 149 149 142 144 140 140 136 128 120 119 118 114 113 109 106 105 100 97 91 86 83 83 76 73 73 66
183 129 140 244 239 53 224 187 223 208 261 70 29 104 187 220 262 35 180 322 326 283 279 308 326 327 329 330 334 332 329 327 322 298 221 191 176 169 179 180 167 171 184 185 183 182 182 182 183 185 190 187 184 180 184 180 184 189 190 190 193 179 182 186 182 174 175 179 179 175 169 170 159 162 165 159 156 154 140 137 138 128 123 121 121 115 110 106 101 96 91 88 82 77 74 73 75
184 197 158 212 243 185 258 205 358 306 252 32 243 48 274 341 274 66 351 26 354 317 323 330 326 321 322 329 334 341 349 354 341 315 221 189 177 172 174 168 175 176 179 180 181 181 184 186 188 194 191 182 180 182 187 184 193 195 192 193 190 182 190 193 193 182 177 184 178 182 184 181 175 176 170 172 166 164 159 148 139 127 126 130 129 126 122 116 111 104 101 94 91 89 88 86 84
197 25 196 221 200 204 230 218 243 266 316 44 32 217 230 218 100 332 13 328 347 10 351 353 338 336 324 317 332 4 8 10 358 10 82 155 147 156 162 165 168 172 177 181 181 184 185 192 195 199 191 185 187 190 188 194 195 194 195 199 194 192 194 194 201 194 175 178 184 187 192 185 186 181 177 166 160 168 157 148 139 134 135 135 137 133 128 120 112 106 101 102 98 98 95 90 84
68 229 58 157 226 131 254 24 267 259 184 192 172 255 290 34 348 338 299 61 48 4 15 347 3 356 341 349 16 17 14 12 20 21 46 99 126 148 147 156 167 171 177 179 187 188 192 195 192 198 200 192 193 194 198 197 198 189 189 194 201 201 204 200 199 190 195 192 181 190 191 191 196 184 167 154 163 162 156 148 141 136 137 138 137 133 130 122 118 110 105 101 98 98 99 92 89
146 167 203 185 49 125 89 111 55 58 29 242 87 271 216 253 148 80 90 76 55 23 17 9 1 0 356 24 20 23 18 19 17 29 24 33 95 126 147 160 168 166 172 182 186 190 197 195 196 202 205 203 196 201 203 199 201 195 196 194 194 199 206 206 203 196 195 196 197 198 191 198 182 179 169 167 155 161 156 150 143 139 139 138 136 131 124 120 119 113 108 110 105 106 103 92 81
115 225 149 109 151 55 161 246 49 46 239 251 115 214 181 178 205 161 144 138 71 41 14 2 3 5 33 20 27 27 25 22 28 34 46 51 35 84 140 160 164 167 171 176 186 187 192 196 202 203 205 211 206 197 203 202 204 209 204 200 200 202 205 208 207 199 191 191 199 198 198 188 196 187 176 169 160 155 151 149 144 143 140 140 134 129 121 117 115 105 101 97 95 107 113 107 92
286 323 111 233 205 214 78 118 213 192 218 259 181 304 266 230 195 156 175 166 153 108 23 27 44 34 22 19 30 30 27 26 27 30 33 35 40 43 86 115 137 155 166 179 183 189 199 201 198 203 211 211 208 198 204 206 209 212 209 206 204 204 210 214 210 203 190 199 199 196 194 197 183 175 176 168 167 158 156 155 149 145 146 143 137 130 127 119 115 110 106 102 103 103 100 107 98
65 146 130 40 274 278 187 210 4 224 263 108 221 166 237 191 209 178 163 170 160 141 162 92 57 35 10 19 28 30 26 23 22 32 37 39 40 40 38 71 90 74 187 196 190 192 206 199 193 201 202 198 202 210 204 212 210 214 216 212 213 210 209 210 209 201 203 209 207 198 196 191 191 182 184 174 174 167 161 156 156 150 149 148 143 135 132 124 123 119 117 111 109 113 98 93 101
156 198 160 136 39 334 9 84 228 248 199 209 242 236 213 176 174 170 161 165 166 166 136 127 79 35 26 12 21 29 35 27 22 23 34 44 47 47 49 51 59 61 44 9 351 225 227 198 199 201 204 208 212 212 205 208 197 210 215 222 219 212 213 210 209 208 213 214 210 202 200 196 177 190 179 177 177 171 167 162 157 157 158 157 149 145 143 142 143 138 130 119 128 127 111 97 86
352 242 251 163 171 199 220 228 106 280 222 209 171 243 176 90 142 208 147 162 159 185 156 118 75 54 27 8 20 21 34 38 31 23 27 38 38 41 44 47 47 53 50 45 30 25 339 248 230 199 213 226 230 224 219 218 209 205 207 217 219 218 216 212 212 211 214 214 209 206 196 182 193 189 182 182 182 171 168 164 163 164 164 159 156 152 154 159 158 151 145 142 149 152 140 126 126